TimeEST,TemperatureF,Dew PointF,Humidity,Sea Level PressureIn,VisibilityMPH,Wind Direction,Wind SpeedMPH,Gust SpeedMPH,PrecipitationIn,Events,Conditions,WindDirDegrees,DateUTC
12:58 AM,33.4,33.3,99,30.08,9.0,NW,3.5,-,N/A,,Clear,320,2013-02-15 05:58:00
1:58 AM,33.4,32.9,98,30.07,10.0,Calm,Calm,-,N/A,,Clear,340,2013-02-15 06:58:00
2:58 AM,32.7,32.2,98,30.07,10.0,Calm,Calm,-,N/A,,Clear,360,2013-02-15 07:58:00
3:58 AM,30.6,30.0,98,30.07,7.0,NE,1.2,-,N/A,,Clear,50,2013-02-15 08:58:00
4:13 AM,30.2,30.2,100,30.06,2.5,ENE,2.3,-,N/A,,Clear,70,2013-02-15 09:13:00
4:18 AM,32.0,32.0,100,30.06,4.0,East,3.5,-,N/A,,Clear,90,2013-02-15 09:18:00
4:22 AM,30.2,30.2,100,30.07,6.0,East,2.3,-,N/A,,Partly Cloudy,100,2013-02-15 09:22:00
4:32 AM,30.2,30.2,100,30.07,6.0,East,2.3,-,N/A,,Mostly Cloudy,80,2013-02-15 09:32:00
4:37 AM,32.0,32.0,100,30.07,5.0,ENE,3.5,-,N/A,,Mostly Cloudy,60,2013-02-15 09:37:00
4:42 AM,32.0,32.0,100,30.07,1.8,Calm,Calm,-,N/A,,Mostly Cloudy,20,2013-02-15 09:42:00
4:48 AM,32.0,32.0,100,30.07,1.2,NNW,2.3,-,N/A,,Mostly Cloudy,340,2013-02-15 09:48:00
4:53 AM,32.0,32.0,100,30.07,1.0,NNW,2.3,-,N/A,,Mist,340,2013-02-15 09:53:00
4:58 AM,30.7,30.6,99,30.08,1.0,North,2.3,-,N/A,,Mist,360,2013-02-15 09:58:00
5:03 AM,30.2,30.2,100,30.07,3.0,Calm,Calm,-,N/A,,Partly Cloudy,360,2013-02-15 10:03:00
5:28 AM,32.0,32.0,100,30.08,2.0,Calm,Calm,-,N/A,,Clear,0,2013-02-15 10:28:00
5:33 AM,32.0,32.0,100,30.08,1.5,NW,1.2,-,N/A,,Clear,320,2013-02-15 10:33:00
5:38 AM,32.0,32.0,100,30.09,2.0,Calm,Calm,-,N/A,,Clear,0,2013-02-15 10:38:00
5:43 AM,32.0,30.2,93,30.09,1.8,NW,1.2,-,N/A,,Clear,320,2013-02-15 10:43:00
5:48 AM,30.2,30.2,100,30.09,1.0,NNW,2.3,-,N/A,,Clear,330,2013-02-15 10:48:00
5:53 AM,30.2,30.2,100,30.09,1.2,NW,3.5,-,N/A,,Clear,320,2013-02-15 10:53:00
5:58 AM,32.0,30.2,93,30.10,2.5,NW,3.5,-,N/A,,Clear,320,2013-02-15 10:58:00
6:03 AM,30.2,30.2,100,30.09,10.0,NW,2.3,-,N/A,,Clear,320,2013-02-15 11:03:00
6:18 AM,28.4,28.4,100,30.09,1.2,NNW,1.2,-,N/A,,Clear,340,2013-02-15 11:18:00
6:23 AM,28.4,28.4,100,30.09,1.5,Calm,Calm,-,N/A,,Clear,0,2013-02-15 11:23:00
6:28 AM,30.2,28.4,93,30.09,3.0,Calm,Calm,-,N/A,,Clear,0,2013-02-15 11:28:00
6:58 AM,29.7,29.3,99,30.12,9.0,Calm,Calm,-,N/A,,Clear,0,2013-02-15 11:58:00
7:33 AM,28.4,28.4,100,30.11,2.0,NNW,3.5,-,N/A,,Clear,330,2013-02-15 12:33:00
7:38 AM,30.2,28.4,93,30.11,1.8,NW,4.6,-,N/A,,Clear,320,2013-02-15 12:38:00
7:43 AM,30.2,30.2,100,30.11,5.0,NW,4.6,-,N/A,,Clear,310,2013-02-15 12:43:00
7:58 AM,31.5,31.3,99,30.13,10.0,NW,3.5,-,N/A,,Clear,310,2013-02-15 12:58:00
8:58 AM,42.1,38.8,88,30.14,7.0,West,1.2,-,N/A,,Clear,270,2013-02-15 13:58:00
9:58 AM,47.7,41.2,78,30.12,7.0,Variable,2.3,-,N/A,,Clear,0,2013-02-15 14:58:00
10:58 AM,54.3,38.8,56,30.11,7.0,Variable,1.2,-,N/A,,Clear,0,2013-02-15 15:58:00
11:58 AM,58.8,38.5,47,30.10,7.0,Variable,2.3,-,N/A,,Clear,0,2013-02-15 16:58:00
12:58 PM,61.7,37.0,40,30.07,7.0,Variable,1.2,-,N/A,,Partly Cloudy,0,2013-02-15 17:58:00
1:58 PM,62.6,34.2,35,30.04,7.0,Variable,2.3,-,N/A,,Partly Cloudy,0,2013-02-15 18:58:00
2:58 PM,63.3,31.8,31,30.00,7.0,Variable,5.8,-,N/A,,Partly Cloudy,0,2013-02-15 19:58:00
3:58 PM,63.7,30.6,29,29.98,10.0,Variable,4.6,-,N/A,,Clear,0,2013-02-15 20:58:00
4:58 PM,63.3,30.6,29,29.97,10.0,West,2.3,-,N/A,,Clear,270,2013-02-15 21:58:00
5:58 PM,60.1,32.0,35,29.98,10.0,SSW,2.3,-,N/A,,Clear,200,2013-02-15 22:58:00
6:58 PM,51.3,37.0,58,29.99,10.0,Calm,Calm,-,N/A,,Clear,0,2013-02-15 23:58:00
7:58 PM,45.9,39.2,78,29.99,10.0,Calm,Calm,-,N/A,,Clear,10,2013-02-16 00:58:00
8:58 PM,42.1,37.0,82,29.99,10.0,NE,1.2,-,N/A,,Clear,50,2013-02-16 01:58:00
9:58 PM,40.6,36.9,86,29.98,10.0,Calm,Calm,-,N/A,,Clear,0,2013-02-16 02:58:00
10:58 PM,38.8,35.8,89,29.97,10.0,Calm,Calm,-,N/A,,Clear,0,2013-02-16 03:58:00
11:58 PM,37.6,36.3,95,29.96,10.0,Calm,Calm,-,N/A,,Clear,0,2013-02-16 04:58:00